Hourly Data Report for September 19, 2017

All times are specified in Local Standard Time (LST). Add 1 hour to adjust for Daylight Saving Time where and when it is observed.

DOAKTOWN AUTO RCS
NEW BRUNSWICK

46°35'06.090" N
66°00'35.071" W
43.00 m
8101201
71038
ADN

Download Data

Hourly Data (September 2017)
Hourly Data Report for September 19, 2017
Temp Definition
°C
Dew Point Temp Definition
°C
Rel Hum Definition
%
Wind Dir Definition
10's deg

Wind Spd Definition
km/h
Visibility Definition
km
Stn Press Definition
kPa
Hmdx Definition


Wind Chill Definition


Weather Definition


TIME
00:00 16.3 15.7 96   0   101.83     LegendNANA
01:00 16.2 15.6 96   0   101.83     LegendNANA
02:00 16.1 15.6 97   0   101.78     LegendNANA
03:00 16.0 15.4 97   0   101.75     LegendNANA
04:00 16.0 15.4 96   0   101.76     LegendNANA
05:00 15.9 15.3 97   0   101.77     LegendNANA
06:00 15.8 15.3 97   0   101.81     LegendNANA
07:00 16.0 15.5 97 34 2   101.81     LegendNANA
08:00 17.2 16.3 95 25 1   101.79     LegendNANA
09:00 18.0 16.4 91 19 2   101.80     LegendNANA
10:00 19.4 16.3 82 17 6   101.78     LegendNANA
11:00 19.9 16.4 80 21 6   101.77     LegendNANA
12:00 20.6 16.1 76 18 8   101.73 25   LegendNANA
13:00 21.0 16.1 74 19 6   101.66 26   LegendNANA
14:00 22.5 16.2 68 17 5   101.57 27   LegendNANA
15:00 22.4 16.2 68 20 6   101.53 27   LegendNANA
16:00 22.1 17.0 73 29 4   101.51 27   LegendNANA
17:00 20.8 17.6 82 15 2   101.49 27   LegendNANA
18:00 20.2 17.5 85 14 2   101.46 26   LegendNANA
19:00 18.1 16.5 90 0 1   101.46     LegendNANA
20:00 16.6 15.6 94   0   101.47     LegendNANA
21:00 16.4 15.6 95   0   101.47     LegendNANA
22:00 16.6 15.9 96   0   101.46     LegendNANA
23:00 16.5 15.8 96   0   101.45     LegendNANA

Notes on Data Quality.

Legend

  • E = Estimated
  • M = Missing
  • NA = Not Available
  • ‡ = Partner data that is not subject to review by the National Climate Archives
Date modified: